User: anonymous   Login
Location: UBC Liquid-Mirror Observatory
(49.2876°N, 122.5728°W)
Time: 05:32:25
(UTC-07:00)
Language:

Cosmos 1315 - Orbit

View from above orbital plane
View from above orbital plane
View from above satellite
View from above satellite

Ground track
Ground track

The orbit data is extracted from the following two-line orbital elements,

1 12903U 81103A   15182.73640564  .00097650  00000-0  36921-3 0  9991
2 12903 081.1155 035.1252 0001366 041.4933 004.0385 15.87401624849522
Epoch (UTC): 01 July 2015 17:40:25
Eccentricity: 0.0001366
inclination: 81.1155°
perigee height: 308 km
apogee height: 310 km
right ascension of ascending node: 35.1252°
argument of perigee: 41.4933°
revolutions per day: 15.87401624
mean anomaly at epoch: 4.0385°
orbit number at epoch: 84952

The dashed part of the orbit path shows where the satellite is in the earth's shadow,  

DLR